Starlink 30286

operational
NORAD ID: 57647 Int'l Des: 2023-122 Owner: SPXS Country: US Constellation: starlink
LEOCIRCULAR

Über Starlink 30286

Beschreibung wird geladen...

Live-Position

3D-Globus wird geladen...

Nächste Überflüge

Höhenverlauf

Altitude vs Time

uPlot chart will show altitude changes over time

Zweizeiliger Elementsatz

1 57647U 23122R 25278.19427102 .00000791 00000-0 73586-4 0 9999
2 57647 43.0024 219.3492 0000906 270.9370 89.1369 15.02535264118792
Epoch: 5. Okt. 2025 • Age: 23 hours

Aktueller Status

Höhe 558.5 km
Geschwindigkeit 7.59 km/s
Subsatellitenpunkt 15.45°N, 53.49°W
Startdatum 17. Aug. 2023
Alter 2.1 years
Typ internet

Technische Details

Klassifizierung Payload
Masse 730.00 kg
Trockenmasse 700.00 kg
Gesamtmasse 730.00 kg
Länge 0.30 m
Durchmesser 4.10 m
Spannweite 29.00 m
Form Box + pan
Hersteller SPXS
Bus-Typ Starlink V2M
Phasenstatus In Orbit
Besitzer/Staat SPXS/US

Große Konstellationen

Loading constellations...